Regional Weather Roundup
Issued by NWS

Home | Current Version | Previous Version | Text Only | Print | Product List | Glossary On
Versions: 1 2 3 4 5 6 7 8 9 10 11 12 13 14 15 16 17 18 19 20 21 22 23 24 25 26 27 28 29 30 31 32 33 34 35 36 37 38 39 40 41 42 43 44 45 46 47 48 49 50
000
ASCA42 TJSJ 190011
RWRPR
PUERTO RICO/U.S. VIRGIN ISLANDS HOURLY WEATHER ROUNDUP
NATIONAL WEATHER SERVICE SAN JUAN PR
800 PM AST FRI APR 18 2014

PRZ001-004-190100-
PUERTO RICO

CITY           SKY/WX    TMP DP  RH WIND       PRES   REMARKS
SAN JUAN LMM   PTCLDY    81  70  69 E15       30.04R
PONCE          PTCLDY    79  66  65 E6        29.96R
AGUADILLA      CLEAR     77  70  78 E16G28    30.03R
CEIBA          MOCLDY    81  70  69 E7        30.06R
$$

PRZ006-007-190100-
U.S. VIRGIN ISLANDS

CITY           SKY/WX    TMP DP  RH WIND       PRES   REMARKS
$$

HOURLY WEATHER ROUNDUP FOR THE NEWS MEDIA

CITY           SKY/WX    TMP DP  RH WIND       PRES   REMARKS
MIAMI          MOCLDY    79  70  74 S9        29.97S
ORLANDO        CLOUDY    70  65  84 CALM      29.94F
NEW YORK       CLOUDY    41  32  70 S5        30.32F
NEWARK         CLOUDY    44  33  65 S5        30.30F
CHICAGO        CLEAR     42  29  59 NE15      30.33F
HARTFORD       CLOUDY    41  34  76 E6        30.30F
BOSTON         CLOUDY    38  31  76 E5        30.32F WCI  34
DALLAS         MOSUNNY   75  43  31 MISG      30.12R
PHILADELPHIA   CLOUDY    53  30  41 CALM      30.30F



USA.gov is the U.S. government's official web portal to all federal, state and local government web resources and services.